| time (UTC) | temp F | wind direction | speed MPH | gust MPH | rain 1hr in | rain 24hr in | rain mn in | humidity % | barometer mb |
| 20260502204545 | 59 | 300 | 1.0 | 6.0 | 0.00 | 0.00 | 0.00 | 45 | 1004.1 |
| 20260502204042 | 59 | 248 | 1.0 | 9.0 | 0.00 | 0.00 | 0.00 | 44 | 1004.2 |
| 20260502203540 | 59 | 277 | 3.0 | 12.0 | 0.00 | 0.00 | 0.00 | 45 | 1004.0 |
| 20260502203042 | 60 | 39 | 3.0 | 11.0 | 0.00 | 0.00 | 0.00 | 44 | 1004.2 |
| 20260502202538 | 59 | 15 | 2.0 | 10.0 | 0.00 | 0.00 | 0.00 | 45 | 1004.1 |
| 20260502202038 | 59 | 49 | 1.0 | 9.0 | 0.00 | 0.00 | 0.00 | 46 | 1004.2 |
| 20260502201538 | 59 | 297 | 2.0 | 9.0 | 0.00 | 0.00 | 0.00 | 45 | 1004.1 |
| 20260502201038 | 59 | 357 | 3.0 | 9.0 | 0.00 | 0.00 | 0.00 | 45 | 1004.2 |
| 20260502200537 | 59 | 281 | 1.0 | 8.0 | 0.00 | 0.00 | 0.00 | 46 | 1004.2 |
| 20260502200055 | 59 | 291 | 1.0 | 7.0 | 0.00 | 0.00 | 0.00 | 46 | 1004.2 |
| 20260502195535 | 58 | 310 | 2.0 | 9.0 | 0.00 | 0.00 | 0.00 | 46 | 1004.3 |
| 20260502195034 | 58 | 51 | 4.0 | 9.0 | 0.00 | 0.00 | 0.00 | 46 | 1004.4 |
| 20260502194541 | 58 | 278 | 2.0 | 9.0 | 0.00 | 0.00 | 0.00 | 47 | 1004.4 |
| 20260502194034 | 58 | 86 | 0.0 | 6.0 | 0.00 | 0.00 | 0.00 | 46 | 1004.4 |
| 20260502193535 | 58 | 309 | 3.0 | 12.0 | 0.00 | 0.00 | 0.00 | 45 | 1004.7 |
| 20260502193033 | 58 | 219 | 2.0 | 12.0 | 0.00 | 0.00 | 0.00 | 46 | 1004.6 |
| 20260502192534 | 58 | 285 | 4.0 | 8.0 | 0.00 | 0.00 | 0.00 | 46 | 1004.7 |
| 20260502192031 | 58 | 253 | 0.0 | 5.0 | 0.00 | 0.00 | 0.00 | 48 | 1004.7 |
| 20260502191532 | 57 | 272 | 1.0 | 5.0 | 0.00 | 0.00 | 0.00 | 47 | 1004.8 |
| 20260502191032 | 57 | 265 | 2.0 | 7.0 | 0.00 | 0.00 | 0.00 | 47 | 1004.9 |
| 20260502190531 | 57 | 262 | 2.0 | 7.0 | 0.00 | 0.00 | 0.00 | 47 | 1005.0 |
| 20260502190031 | 57 | 60 | 2.0 | 7.0 | 0.00 | 0.00 | 0.00 | 47 | 1005.1 |
| 20260502185531 | 57 | 58 | 2.0 | 11.0 | 0.00 | 0.00 | 0.00 | 48 | 1005.2 |
| 20260502185030 | 58 | 261 | 4.0 | 11.0 | 0.00 | 0.00 | 0.00 | 48 | 1005.4 |
| 20260502184531 | 58 | 160 | 2.0 | 9.0 | 0.00 | 0.00 | 0.00 | 48 | 1005.4 |
| 20260502184033 | 58 | 319 | 2.0 | 9.0 | 0.00 | 0.00 | 0.00 | 49 | 1005.5 |
| 20260502183530 | 58 | 319 | 2.0 | 8.0 | 0.00 | 0.00 | 0.00 | 48 | 1005.7 |
| 20260502183036 | 58 | 229 | 2.0 | 8.0 | 0.00 | 0.00 | 0.00 | 47 | 1005.7 |
| 20260502182532 | 58 | 283 | 2.0 | 10.0 | 0.00 | 0.00 | 0.00 | 49 | 1005.8 |
| 20260502182029 | 58 | 80 | 4.0 | 10.0 | 0.00 | 0.00 | 0.00 | 49 | 1005.7 |
| 20260502181530 | 58 | 288 | 4.0 | 10.0 | 0.00 | 0.00 | 0.00 | 49 | 1005.8 |
| 20260502181029 | 57 | 286 | 3.0 | 11.0 | 0.00 | 0.00 | 0.00 | 49 | 1005.9 |
| 20260502180529 | 58 | 69 | 2.0 | 11.0 | 0.00 | 0.00 | 0.00 | 48 | 1006.1 |
| 20260502164025 | 57 | 300 | 3.0 | 9.0 | 0.00 | 0.00 | 0.00 | 48 | 1006.7 |
| 20260502163525 | 57 | 322 | 2.0 | 10.0 | 0.00 | 0.00 | 0.00 | 49 | 1006.8 |
| 20260502163023 | 57 | 27 | 1.0 | 5.0 | 0.00 | 0.00 | 0.00 | 50 | 1007.0 |
| 20260502162522 | 56 | 8 | 2.0 | 7.0 | 0.00 | 0.00 | 0.00 | 52 | 1006.9 |
| 20260502162021 | 56 | 84 | 1.0 | 8.0 | 0.00 | 0.00 | 0.00 | 54 | 1006.9 |
| 20260502161520 | 55 | 300 | 3.0 | 8.0 | 0.00 | 0.00 | 0.00 | 51 | 1006.9 |
| 20260502161020 | 55 | 51 | 3.0 | 9.0 | 0.00 | 0.00 | 0.00 | 50 | 1007.0 |
| 20260502160520 | 55 | 84 | 3.0 | 9.0 | 0.00 | 0.00 | 0.00 | 52 | 1007.0 |
| 20260502152017 | 54 | 68 | 1.0 | 9.0 | 0.00 | 0.00 | 0.00 | 56 | 1007.1 |
| 20260502151618 | 54 | 77 | 0.0 | 9.0 | 0.00 | 0.00 | 0.00 | 57 | 1007.3 |
| 20260502151016 | 54 | 40 | 1.0 | 7.0 | 0.00 | 0.00 | 0.00 | 57 | 1007.4 |
| 20260502150516 | 53 | 343 | 1.0 | 9.0 | 0.00 | 0.00 | 0.00 | 57 | 1007.4 |
| 20260502130508 | 49 | 35 | 3.0 | 12.0 | 0.00 | 0.00 | 0.00 | 66 | 1007.1 |
| 20260502123502 | 49 | 7 | 2.0 | 7.0 | 0.00 | 0.00 | 0.00 | 69 | 1006.9 |
| 20260502123003 | 49 | 300 | 1.0 | 10.0 | 0.00 | 0.00 | 0.00 | 69 | 1007.0 |
| 20260502122502 | 49 | 19 | 3.0 | 14.0 | 0.00 | 0.00 | 0.00 | 69 | 1007.0 |
| 20260502122103 | 49 | 297 | 4.0 | 14.0 | 0.00 | 0.00 | 0.00 | 68 | 1007.0 |
| 20260502121605 | 48 | 43 | 3.0 | 10.0 | 0.00 | 0.00 | 0.00 | 68 | 1006.8 |
| 20260502121059 | 48 | 283 | 3.0 | 11.0 | 0.00 | 0.00 | 0.00 | 68 | 1006.8 |
| 20260502120600 | 48 | 57 | 3.0 | 11.0 | 0.00 | 0.00 | 0.00 | 69 | 1006.6 |
| 20260502120115 | 48 | 299 | 1.0 | 8.0 | 0.00 | 0.00 | 0.00 | 68 | 1006.7 |
| 20260502115602 | 48 | 333 | 2.0 | 8.0 | 0.00 | 0.00 | 0.00 | 68 | 1006.8 |
| 20260502115058 | 48 | 293 | 2.0 | 8.0 | 0.00 | 0.00 | 0.00 | 68 | 1006.7 |
| 20260502114619 | 48 | 286 | 3.0 | 13.0 | 0.00 | 0.00 | 0.00 | 68 | 1006.7 |
| 20260502114059 | 48 | 42 | 6.0 | 13.0 | 0.00 | 0.00 | 0.00 | 69 | 1006.8 |
| 20260502113559 | 48 | 169 | 2.0 | 10.0 | 0.00 | 0.00 | 0.00 | 69 | 1006.7 |
| 20260502113115 | 48 | 304 | 3.0 | 12.0 | 0.00 | 0.00 | 0.00 | 69 | 1006.7 |
| 20260502112558 | 48 | 42 | 3.0 | 12.0 | 0.00 | 0.00 | 0.00 | 69 | 1006.8 |
| 20260502112056 | 48 | 311 | 3.0 | 10.0 | 0.00 | 0.00 | 0.00 | 70 | 1006.8 |
| 20260502111605 | 48 | 305 | 2.0 | 7.0 | 0.00 | 0.00 | 0.00 | 70 | 1006.7 |
| 20260502111058 | 48 | 51 | 1.0 | 14.0 | 0.00 | 0.00 | 0.00 | 70 | 1006.7 |
| 20260502110556 | 48 | 55 | 5.0 | 14.0 | 0.00 | 0.00 | 0.00 | 70 | 1006.7 |
| 20260502110104 | 49 | 41 | 4.0 | 13.0 | 0.00 | 0.00 | 0.00 | 70 | 1006.6 |
| 20260502105554 | 49 | 300 | 4.0 | 10.0 | 0.00 | 0.00 | 0.00 | 70 | 1006.7 |
| 20260502105053 | 49 | 307 | 3.0 | 10.0 | 0.00 | 0.00 | 0.00 | 70 | 1006.7 |
| 20260502104551 | 49 | 276 | 1.0 | 11.0 | 0.00 | 0.00 | 0.00 | 70 | 1006.5 |
| 20260502104053 | 49 | 302 | 3.0 | 11.0 | 0.00 | 0.00 | 0.00 | 71 | 1006.4 |
| 20260502103550 | 49 | 288 | 2.0 | 12.0 | 0.00 | 0.00 | 0.00 | 72 | 1006.3 |
| 20260502103109 | 49 | 333 | 4.0 | 12.0 | 0.00 | 0.00 | 0.00 | 72 | 1006.3 |
| 20260502102548 | 49 | 280 | 3.0 | 9.0 | 0.00 | 0.00 | 0.00 | 74 | 1006.3 |
| 20260502102046 | 49 | 273 | 1.0 | 7.0 | 0.00 | 0.00 | 0.00 | 74 | 1006.2 |
| 20260502101552 | 49 | 288 | 2.0 | 7.0 | 0.00 | 0.00 | 0.00 | 75 | 1006.2 |
| 20260502101045 | 49 | 66 | 1.0 | 7.0 | 0.00 | 0.00 | 0.00 | 75 | 1006.1 |
| 20260502100547 | 49 | 40 | 1.0 | 5.0 | 0.00 | 0.00 | 0.00 | 75 | 1006.2 |
| 20260502091039 | 50 | 57 | 0.0 | 4.0 | 0.00 | 0.00 | 0.00 | 80 | 1005.5 |
| 20260502090537 | 50 | 56 | 0.0 | 2.0 | 0.00 | 0.00 | 0.00 | 80 | 1005.4 |
| 20260502071526 | 52 | 75 | 1.0 | 4.0 | 0.00 | 0.00 | 0.00 | 78 | 1005.0 |
| 20260502071027 | 52 | 340 | 0.0 | 4.0 | 0.00 | 0.00 | 0.00 | 78 | 1004.9 |
| 20260502070525 | 52 | 358 | 0.0 | 5.0 | 0.00 | 0.00 | 0.00 | 78 | 1005.0 |
| 20260502070025 | 52 | 319 | 1.0 | 5.0 | 0.00 | 0.00 | 0.00 | 78 | 1004.9 |
| 20260502065524 | 52 | 48 | 0.0 | 4.0 | 0.00 | 0.00 | 0.00 | 78 | 1004.9 |
| 20260502065023 | 52 | 61 | 0.0 | 5.0 | 0.00 | 0.00 | 0.00 | 77 | 1004.9 |
| 20260502064524 | 52 | 18 | 1.0 | 5.0 | 0.00 | 0.00 | 0.00 | 78 | 1005.0 |
| 20260502064023 | 52 | 49 | 0.0 | 3.0 | 0.00 | 0.00 | 0.00 | 78 | 1005.0 |
| 20260502063522 | 52 | 30 | 0.0 | 3.0 | 0.00 | 0.00 | 0.00 | 78 | 1005.1 |
| 20260502063021 | 52 | 40 | 0.0 | 3.0 | 0.00 | 0.00 | 0.00 | 78 | 1005.0 |
| 20260502062521 | 53 | 45 | 0.0 | 2.0 | 0.00 | 0.00 | 0.00 | 78 | 1005.1 |
| 20260502062020 | 53 | 46 | 0.0 | 2.0 | 0.00 | 0.00 | 0.00 | 78 | 1005.2 |
| 20260502061519 | 53 | 26 | 0.0 | 1.0 | 0.00 | 0.00 | 0.00 | 77 | 1005.2 |
| 20260502061020 | 53 | 27 | 0.0 | 1.0 | 0.00 | 0.00 | 0.00 | 77 | 1005.4 |
| 20260502060518 | 53 | 25 | 0.0 | 1.0 | 0.00 | 0.00 | 0.00 | 77 | 1005.5 |
| 20260502060018 | 53 | 25 | 0.0 | 3.0 | 0.00 | 0.00 | 0.00 | 76 | 1005.5 |
| 20260502055518 | 53 | 26 | 0.0 | 3.0 | 0.00 | 0.00 | 0.00 | 76 | 1005.5 |
| 20260502055017 | 54 | 47 | 0.0 | 3.0 | 0.00 | 0.00 | 0.00 | 76 | 1005.6 |
| 20260502054515 | 54 | 302 | 1.0 | 3.0 | 0.00 | 0.00 | 0.00 | 76 | 1005.5 |
| 20260502054014 | 54 | 94 | 0.0 | 1.0 | 0.00 | 0.00 | 0.00 | 75 | 1005.5 |
| 20260502053514 | 54 | 59 | 0.0 | 0.0 | 0.00 | 0.00 | 0.00 | 74 | 1005.6 |
| 20260502053014 | 54 | 59 | 0.0 | 1.0 | 0.00 | 0.00 | 0.00 | 74 | 1005.5 |
| 20260502052515 | 54 | 59 | 0.0 | 3.0 | 0.00 | 0.00 | 0.00 | 73 | 1005.6 |
| 20260502052017 | 54 | 59 | 0.0 | 5.0 | 0.00 | 0.00 | 0.00 | 73 | 1005.5 |
| 20260502051515 | 55 | 44 | 0.0 | 4.0 | 0.00 | 0.00 | 0.00 | 71 | 1005.4 |
| 20260502051011 | 55 | 359 | 1.0 | 4.0 | 0.00 | 0.00 | 0.00 | 70 | 1005.4 |
| 20260502050511 | 55 | 318 | 0.0 | 2.0 | 0.00 | 0.00 | 0.00 | 69 | 1005.4 |
| 20260502050011 | 55 | 62 | 0.0 | 2.0 | 0.00 | 0.00 | 0.00 | 68 | 1005.4 |
| 20260502045510 | 55 | 298 | 0.0 | 2.0 | 0.00 | 0.00 | 0.00 | 67 | 1005.4 |
| 20260502045009 | 55 | 27 | 0.0 | 3.0 | 0.00 | 0.00 | 0.00 | 67 | 1005.3 |
| 20260502044508 | 55 | 295 | 0.0 | 3.0 | 0.00 | 0.00 | 0.00 | 66 | 1005.2 |
| 20260502044007 | 55 | 80 | 0.0 | 1.0 | 0.00 | 0.00 | 0.00 | 65 | 1005.2 |
| 20260502043511 | 55 | 313 | 0.0 | 1.0 | 0.00 | 0.00 | 0.00 | 65 | 1005.3 |
| 20260502043006 | 55 | 323 | 0.0 | 2.0 | 0.00 | 0.00 | 0.00 | 65 | 1005.3 |
| 20260502042505 | 55 | 290 | 0.0 | 2.0 | 0.00 | 0.00 | 0.00 | 66 | 1005.4 |
| 20260502042004 | 54 | 293 | 0.0 | 1.0 | 0.00 | 0.00 | 0.00 | 66 | 1005.4 |
| 20260502041504 | 54 | 293 | 0.0 | 4.0 | 0.00 | 0.00 | 0.00 | 66 | 1005.4 |
| 20260502041003 | 54 | 270 | 1.0 | 4.0 | 0.00 | 0.00 | 0.00 | 66 | 1005.4 |
| 20260502040501 | 54 | 290 | 1.0 | 4.0 | 0.00 | 0.00 | 0.00 | 66 | 1005.2 |
| 20260502035602 | 54 | 302 | 0.0 | 1.0 | 0.00 | 0.00 | 0.00 | 66 | 1004.8 |
| 20260502035059 | 54 | 294 | 0.0 | 1.0 | 0.00 | 0.00 | 0.00 | 65 | 1004.6 |
| 20260502034600 | 54 | 257 | 0.0 | 1.0 | 0.00 | 0.00 | 0.00 | 64 | 1004.4 |
| 20260502034059 | 55 | 257 | 0.0 | 0.0 | 0.00 | 0.00 | 0.00 | 63 | 1004.2 |
| 20260502033558 | 55 | 181 | 0.0 | 0.0 | 0.00 | 0.00 | 0.00 | 64 | 1004.2 |
| 20260502033058 | 55 | 181 | 0.0 | 0.0 | 0.00 | 0.00 | 0.00 | 63 | 1004.2 |
| 20260502032558 | 55 | 203 | 0.0 | 1.0 | 0.00 | 0.00 | 0.00 | 63 | 1004.1 |
| 20260502032058 | 55 | 166 | 0.0 | 1.0 | 0.00 | 0.00 | 0.00 | 62 | 1004.1 |
| 20260502031558 | 55 | 207 | 0.0 | 3.0 | 0.00 | 0.00 | 0.00 | 62 | 1004.1 |
| 20260502031058 | 55 | 195 | 0.0 | 3.0 | 0.00 | 0.00 | 0.00 | 62 | 1004.0 |
| 20260502030558 | 55 | 201 | 0.0 | 3.0 | 0.00 | 0.00 | 0.00 | 61 | 1004.0 |
| 20260502030107 | 55 | 200 | 0.0 | 2.0 | 0.00 | 0.00 | 0.00 | 61 | 1004.0 |
| 20260502025557 | 55 | 215 | 0.0 | 2.0 | 0.00 | 0.00 | 0.00 | 61 | 1003.9 |
| 20260502025059 | 56 | 168 | 0.0 | 2.0 | 0.00 | 0.00 | 0.00 | 61 | 1003.9 |
| 20260502024558 | 56 | 204 | 0.0 | 2.0 | 0.00 | 0.00 | 0.00 | 61 | 1003.8 |
| 20260502024057 | 56 | 186 | 0.0 | 2.0 | 0.00 | 0.00 | 0.00 | 60 | 1003.9 |
| 20260502023557 | 56 | 177 | 0.0 | 2.0 | 0.00 | 0.00 | 0.00 | 60 | 1003.8 |
| 20260502023101 | 56 | 149 | 0.0 | 2.0 | 0.00 | 0.00 | 0.00 | 59 | 1003.8 |
| 20260502022557 | 56 | 185 | 0.0 | 2.0 | 0.00 | 0.00 | 0.00 | 59 | 1003.7 |
| 20260502022056 | 57 | 219 | 0.0 | 3.0 | 0.00 | 0.00 | 0.00 | 59 | 1003.8 |
| 20260502021558 | 57 | 206 | 0.0 | 3.0 | 0.00 | 0.00 | 0.00 | 58 | 1004.0 |
| 20260502021100 | 57 | 170 | 0.0 | 4.0 | 0.00 | 0.00 | 0.00 | 58 | 1003.9 |
| 20260502020559 | 57 | 201 | 0.0 | 4.0 | 0.00 | 0.00 | 0.00 | 57 | 1003.9 |
| 20260502020057 | 57 | 155 | 0.0 | 2.0 | 0.00 | 0.00 | 0.00 | 57 | 1003.9 |
| 20260502015556 | 57 | 168 | 0.0 | 3.0 | 0.00 | 0.00 | 0.00 | 57 | 1003.9 |
| 20260502015055 | 58 | 169 | 0.0 | 4.0 | 0.00 | 0.00 | 0.00 | 56 | 1003.8 |
| 20260502014556 | 58 | 189 | 1.0 | 4.0 | 0.00 | 0.00 | 0.00 | 56 | 1003.9 |
| 20260502014055 | 58 | 187 | 1.0 | 5.0 | 0.00 | 0.00 | 0.00 | 56 | 1003.8 |
| 20260502013555 | 58 | 167 | 1.0 | 5.0 | 0.00 | 0.00 | 0.00 | 55 | 1003.8 |
| 20260502013058 | 58 | 150 | 1.0 | 4.0 | 0.00 | 0.00 | 0.00 | 55 | 1003.7 |
| 20260502012556 | 58 | 188 | 1.0 | 3.0 | 0.00 | 0.00 | 0.00 | 55 | 1003.7 |
| 20260502012055 | 58 | 160 | 0.0 | 2.0 | 0.00 | 0.00 | 0.00 | 55 | 1003.6 |
| 20260502011556 | 58 | 138 | 0.0 | 1.0 | 0.00 | 0.00 | 0.00 | 54 | 1003.5 |
| 20260502011054 | 59 | 124 | 0.0 | 2.0 | 0.00 | 0.00 | 0.00 | 54 | 1003.5 |
| 20260502010556 | 59 | 165 | 0.0 | 2.0 | 0.00 | 0.00 | 0.00 | 53 | 1003.5 |
| 20260502010057 | 59 | 200 | 0.0 | 2.0 | 0.00 | 0.00 | 0.00 | 53 | 1003.3 |
| 20260502005554 | 59 | 162 | 0.0 | 1.0 | 0.00 | 0.00 | 0.00 | 52 | 1003.2 |
| 20260502005057 | 59 | 214 | 0.0 | 3.0 | 0.00 | 0.00 | 0.00 | 52 | 1002.9 |
| 20260502004555 | 59 | 203 | 0.0 | 3.0 | 0.00 | 0.00 | 0.00 | 52 | 1002.8 |
| 20260502004054 | 60 | 236 | 0.0 | 2.0 | 0.00 | 0.00 | 0.00 | 51 | 1002.8 |
| 20260502003554 | 60 | 166 | 0.0 | 2.0 | 0.00 | 0.00 | 0.00 | 50 | 1002.7 |
| 20260502003056 | 60 | 153 | 0.0 | 2.0 | 0.00 | 0.00 | 0.00 | 50 | 1002.6 |
| 20260502002553 | 61 | 202 | 0.0 | 2.0 | 0.00 | 0.00 | 0.00 | 50 | 1002.6 |
| 20260502002053 | 61 | 173 | 0.0 | 2.0 | 0.00 | 0.00 | 0.00 | 49 | 1002.6 |
| 20260502001553 | 61 | 147 | 0.0 | 3.0 | 0.00 | 0.00 | 0.00 | 49 | 1002.6 |
| 20260502001053 | 62 | 220 | 0.0 | 3.0 | 0.00 | 0.00 | 0.00 | 48 | 1002.6 |
| 20260502000552 | 62 | 195 | 0.0 | 3.0 | 0.00 | 0.00 | 0.00 | 48 | 1002.6 |
| 20260502000053 | 63 | 207 | 0.0 | 2.0 | 0.00 | 0.00 | 0.00 | 47 | 1002.7 |
| 20260501235552 | 63 | 190 | 0.0 | 3.0 | 0.00 | 0.00 | 0.00 | 47 | 1002.7 |
| 20260501235051 | 64 | 198 | 0.0 | 2.0 | 0.00 | 0.00 | 0.00 | 46 | 1002.7 |
| 20260501234554 | 65 | 181 | 0.0 | 2.0 | 0.00 | 0.00 | 0.00 | 45 | 1002.7 |
| 20260501234052 | 65 | 207 | 0.0 | 4.0 | 0.00 | 0.00 | 0.00 | 44 | 1002.6 |
| 20260501233552 | 66 | 186 | 1.0 | 7.0 | 0.00 | 0.00 | 0.00 | 43 | 1002.6 |
| 20260501233057 | 66 | 200 | 0.0 | 7.0 | 0.00 | 0.00 | 0.00 | 43 | 1002.6 |
| 20260501232554 | 67 | 222 | 0.0 | 7.0 | 0.00 | 0.00 | 0.00 | 42 | 1002.6 |
| 20260501232050 | 67 | 187 | 3.0 | 7.0 | 0.00 | 0.00 | 0.00 | 41 | 1002.5 |
| 20260501231551 | 67 | 189 | 0.0 | 6.0 | 0.00 | 0.00 | 0.00 | 41 | 1002.6 |
| 20260501231050 | 67 | 169 | 1.0 | 8.0 | 0.00 | 0.00 | 0.00 | 42 | 1002.6 |
| 20260501230550 | 67 | 201 | 3.0 | 9.0 | 0.00 | 0.00 | 0.00 | 41 | 1002.7 |
| 20260501230049 | 67 | 199 | 3.0 | 10.0 | 0.00 | 0.00 | 0.00 | 41 | 1002.6 |
| 20260501225549 | 67 | 203 | 4.0 | 10.0 | 0.00 | 0.00 | 0.00 | 39 | 1002.7 |
| 20260501225047 | 67 | 158 | 2.0 | 12.0 | 0.00 | 0.00 | 0.00 | 40 | 1002.9 |
| 20260501224550 | 67 | 221 | 6.0 | 12.0 | 0.00 | 0.00 | 0.00 | 39 | 1002.8 |
| 20260501224047 | 67 | 236 | 4.0 | 14.0 | 0.00 | 0.00 | 0.00 | 39 | 1002.9 |
| 20260501223548 | 67 | 214 | 5.0 | 15.0 | 0.00 | 0.00 | 0.00 | 39 | 1002.8 |
| 20260501223055 | 67 | 200 | 5.0 | 16.0 | 0.00 | 0.00 | 0.00 | 39 | 1002.7 |
| 20260501222548 | 67 | 176 | 7.0 | 16.0 | 0.00 | 0.00 | 0.00 | 38 | 1002.7 |
| 20260501222046 | 67 | 215 | 5.0 | 12.0 | 0.00 | 0.00 | 0.00 | 38 | 1002.8 |
| 20260501221545 | 67 | 223 | 6.0 | 10.0 | 0.00 | 0.00 | 0.00 | 37 | 1002.9 |
| 20260501221044 | 67 | 190 | 4.0 | 12.0 | 0.00 | 0.00 | 0.00 | 37 | 1002.8 |
| 20260501220545 | 68 | 224 | 7.0 | 12.0 | 0.00 | 0.00 | 0.00 | 36 | 1002.9 |
| 20260501220046 | 68 | 234 | 5.0 | 14.0 | 0.00 | 0.00 | 0.00 | 35 | 1003.0 |
| 20260501215546 | 68 | 145 | 6.0 | 14.0 | 0.00 | 0.00 | 0.00 | 36 | 1002.9 |
| 20260501215046 | 68 | 224 | 4.0 | 14.0 | 0.00 | 0.00 | 0.00 | 36 | 1002.9 |
| 20260501214543 | 68 | 212 | 3.0 | 10.0 | 0.00 | 0.00 | 0.00 | 36 | 1003.2 |
| 20260501214042 | 68 | 153 | 3.0 | 13.0 | 0.00 | 0.00 | 0.00 | 37 | 1003.2 |
| 20260501213542 | 68 | 192 | 4.0 | 13.0 | 0.00 | 0.00 | 0.00 | 36 | 1003.2 |
| 20260501213041 | 68 | 94 | 2.0 | 13.0 | 0.00 | 0.00 | 0.00 | 37 | 1003.1 |
| 20260501212542 | 68 | 208 | 5.0 | 14.0 | 0.00 | 0.00 | 0.00 | 35 | 1003.3 |
| 20260501212042 | 69 | 184 | 5.0 | 14.0 | 0.00 | 0.00 | 0.00 | 36 | 1003.3 |
| 20260501211551 | 68 | 199 | 3.0 | 8.0 | 0.00 | 0.00 | 0.00 | 37 | 1003.3 |
| 20260501211040 | 69 | 226 | 3.0 | 9.0 | 0.00 | 0.00 | 0.00 | 36 | 1003.3 |
| 20260501210543 | 68 | 211 | 5.0 | 14.0 | 0.00 | 0.00 | 0.00 | 37 | 1003.3 |
| 20260501210042 | 68 | 174 | 6.0 | 14.0 | 0.00 | 0.00 | 0.00 | 37 | 1003.3 |
| 20260501205538 | 68 | 250 | 5.0 | 9.0 | 0.00 | 0.00 | 0.00 | 36 | 1003.4 |
| 20260501205040 | 68 | 200 | 4.0 | 11.0 | 0.00 | 0.00 | 0.00 | 37 | 1003.4 |